Time,TemperatureF,DewpointF,PressureIn,WindDirection,WindDirectionDegrees,WindSpeedMPH,WindSpeedGustMPH,Humidity,HourlyPrecipIn,Conditions,Clouds,dailyrainin,SoftwareType,DateUTC
2013-03-22 00:06:00,35.2,24.0,30.00,NNW,328,0.0,-999.0,63,-99.99,,,0.00,weatherlink.com 1.10,2013-03-22 04:06:00,
2013-03-22 00:21:00,34.8,23.0,30.00,NNW,328,0.0,-999.0,63,-99.99,,,0.00,weatherlink.com 1.10,2013-03-22 04:21:00,
2013-03-22 00:51:00,34.4,24.0,30.00,NNW,328,0.0,-999.0,66,-99.99,,,0.00,weatherlink.com 1.10,2013-03-22 04:51:00,
2013-03-22 01:06:00,34.1,23.0,29.99,NNW,328,0.0,-999.0,65,-99.99,,,0.00,weatherlink.com 1.10,2013-03-22 05:06:00,
2013-03-22 01:21:00,34.0,24.0,30.00,NNW,328,0.0,-999.0,66,-99.99,,,0.00,weatherlink.com 1.10,2013-03-22 05:21:00,
2013-03-22 01:36:00,34.0,24.0,30.01,NNW,328,0.0,-999.0,68,-99.99,,,0.00,weatherlink.com 1.10,2013-03-22 05:36:00,
2013-03-22 01:51:00,34.1,25.0,30.00,NNW,328,0.0,-999.0,68,-99.99,,,0.00,weatherlink.com 1.10,2013-03-22 05:51:00,
2013-03-22 02:06:00,34.4,25.0,30.02,NNW,328,0.0,-999.0,69,-99.99,,,0.00,weatherlink.com 1.10,2013-03-22 06:06:00,
2013-03-22 02:21:00,34.7,26.0,30.02,NNW,328,1.0,-999.0,70,-99.99,,,0.00,weatherlink.com 1.10,2013-03-22 06:21:00,
2013-03-22 02:36:00,35.4,25.0,30.03,NNW,328,0.0,-999.0,67,-99.99,,,0.00,weatherlink.com 1.10,2013-03-22 06:36:00,
2013-03-22 02:51:00,35.8,26.0,30.03,NNW,328,0.0,-999.0,67,-99.99,,,0.00,weatherlink.com 1.10,2013-03-22 06:51:00,
2013-03-22 03:21:00,36.5,25.0,30.04,NNW,328,1.0,-999.0,63,-99.99,,,0.00,weatherlink.com 1.10,2013-03-22 07:21:00,
2013-03-22 03:36:00,36.8,24.0,30.03,NNW,328,0.0,-999.0,60,-99.99,,,0.00,weatherlink.com 1.10,2013-03-22 07:36:00,
2013-03-22 03:51:00,37.0,23.0,30.03,NNW,328,0.0,-999.0,58,-99.99,,,0.00,weatherlink.com 1.10,2013-03-22 07:51:00,
2013-03-22 04:06:00,37.3,24.0,30.03,NNW,328,0.0,-999.0,58,-99.99,,,0.00,weatherlink.com 1.10,2013-03-22 08:06:00,
2013-03-22 04:21:00,37.5,24.0,30.02,NNW,328,0.0,-999.0,59,-99.99,,,0.00,weatherlink.com 1.10,2013-03-22 08:21:00,
2013-03-22 04:36:00,37.6,24.0,30.02,NNW,328,0.0,-999.0,58,-99.99,,,0.00,weatherlink.com 1.10,2013-03-22 08:36:00,
2013-03-22 04:51:00,37.6,23.0,30.02,NNW,328,0.0,-999.0,56,-99.99,,,0.00,weatherlink.com 1.10,2013-03-22 08:51:00,
2013-03-22 05:06:00,37.6,24.0,30.02,NNW,328,1.0,-999.0,58,-99.99,,,0.00,weatherlink.com 1.10,2013-03-22 09:06:00,
2013-03-22 05:21:00,37.7,24.0,30.02,NNW,328,0.0,-999.0,57,-99.99,,,0.00,weatherlink.com 1.10,2013-03-22 09:21:00,
2013-03-22 05:36:00,37.5,23.0,30.02,NNW,328,0.0,-999.0,56,-99.99,,,0.00,weatherlink.com 1.10,2013-03-22 09:36:00,
2013-03-22 05:51:00,37.5,24.0,30.03,NNW,328,0.0,-999.0,58,-99.99,,,0.00,weatherlink.com 1.10,2013-03-22 09:51:00,
2013-03-22 06:06:00,37.5,24.0,30.04,NNW,328,0.0,-999.0,58,-99.99,,,0.00,weatherlink.com 1.10,2013-03-22 10:06:00,
2013-03-22 06:21:00,37.5,24.0,30.04,NNW,328,0.0,-999.0,58,-99.99,,,0.00,weatherlink.com 1.10,2013-03-22 10:21:00,
2013-03-22 06:36:00,37.4,24.0,30.04,NNW,328,0.0,-999.0,60,-99.99,,,0.00,weatherlink.com 1.10,2013-03-22 10:36:00,
2013-03-22 06:51:00,37.4,24.0,30.04,NE,50,3.0,-999.0,59,-99.99,,,0.00,weatherlink.com 1.10,2013-03-22 10:51:00,
2013-03-22 07:06:00,37.1,25.0,30.04,NE,52,1.0,-999.0,61,-99.99,,,0.00,weatherlink.com 1.10,2013-03-22 11:06:00,
2013-03-22 07:22:00,37.0,26.0,30.05,NE,52,0.0,-999.0,65,-99.99,,,0.00,weatherlink.com 1.10,2013-03-22 11:22:00,
2013-03-22 07:37:00,36.8,27.0,30.05,NE,52,0.0,-999.0,68,-99.99,,,0.00,weatherlink.com 1.10,2013-03-22 11:37:00,
2013-03-22 07:52:00,36.7,28.0,30.06,NE,52,0.0,-999.0,70,-99.99,,,0.00,weatherlink.com 1.10,2013-03-22 11:52:00,
2013-03-22 08:07:00,36.5,28.0,30.05,NE,52,2.0,-999.0,72,-99.99,,,0.00,weatherlink.com 1.10,2013-03-22 12:07:00,
2013-03-22 08:22:00,36.7,27.0,30.05,NE,42,2.0,-999.0,69,-99.99,,,0.00,weatherlink.com 1.10,2013-03-22 12:22:00,
2013-03-22 08:37:00,36.9,27.0,30.05,NE,44,4.0,-999.0,67,-99.99,,,0.00,weatherlink.com 1.10,2013-03-22 12:37:00,
2013-03-22 08:52:00,37.1,27.0,30.06,ESE,120,3.0,-999.0,66,-99.99,,,0.00,weatherlink.com 1.10,2013-03-22 12:52:00,
2013-03-22 09:07:00,37.4,27.0,30.07,ENE,66,1.0,-999.0,66,-99.99,,,0.00,weatherlink.com 1.10,2013-03-22 13:07:00,
2013-03-22 09:22:00,37.7,27.0,30.07,ENE,66,1.0,-999.0,66,-99.99,,,0.00,weatherlink.com 1.10,2013-03-22 13:22:00,
2013-03-22 09:37:00,38.0,27.0,30.07,ENE,66,0.0,-999.0,65,-99.99,,,0.00,weatherlink.com 1.10,2013-03-22 13:37:00,
2013-03-22 09:52:00,38.4,27.0,30.07,ENE,66,0.0,-999.0,65,-99.99,,,0.00,weatherlink.com 1.10,2013-03-22 13:52:00,
2013-03-22 10:07:00,39.2,28.0,30.07,ENE,66,1.0,-999.0,65,-99.99,,,0.00,weatherlink.com 1.10,2013-03-22 14:07:00,
2013-03-22 10:22:00,39.7,29.0,30.07,ENE,66,0.0,-999.0,65,-99.99,,,0.00,weatherlink.com 1.10,2013-03-22 14:22:00,
2013-03-22 10:37:00,40.0,28.0,30.07,ENE,66,0.0,-999.0,63,-99.99,,,0.00,weatherlink.com 1.10,2013-03-22 14:37:00,
2013-03-22 10:52:00,40.4,29.0,30.07,ENE,66,0.0,-999.0,63,-99.99,,,0.00,weatherlink.com 1.10,2013-03-22 14:52:00,
2013-03-22 11:07:00,41.0,28.0,30.08,ENE,66,0.0,-999.0,61,-99.99,,,0.00,weatherlink.com 1.10,2013-03-22 15:07:00,
2013-03-22 11:22:00,41.6,28.0,30.08,ENE,68,1.0,-999.0,59,-99.99,,,0.00,weatherlink.com 1.10,2013-03-22 15:22:00,
2013-03-22 11:37:00,41.7,28.0,30.09,ENE,68,2.0,-999.0,59,-99.99,,,0.00,weatherlink.com 1.10,2013-03-22 15:37:00,
2013-03-22 11:52:00,42.4,29.0,30.09,ENE,76,2.0,-999.0,59,-99.99,,,0.00,weatherlink.com 1.10,2013-03-22 15:52:00,
2013-03-22 12:07:00,43.1,28.0,30.10,South,169,2.0,-999.0,56,-99.99,,,0.00,weatherlink.com 1.10,2013-03-22 16:07:00,
2013-03-22 12:22:00,43.7,28.0,30.09,SE,140,1.0,-999.0,54,-99.99,,,0.00,weatherlink.com 1.10,2013-03-22 16:22:00,
2013-03-22 12:37:00,44.1,28.0,30.09,SSE,147,2.0,-999.0,54,-99.99,,,0.00,weatherlink.com 1.10,2013-03-22 16:37:00,
2013-03-22 12:52:00,44.4,28.0,30.08,SE,129,3.0,-999.0,53,-99.99,,,0.00,weatherlink.com 1.10,2013-03-22 16:52:00,
2013-03-22 13:07:00,44.8,28.0,30.07,South,190,0.0,-999.0,52,-99.99,,,0.00,weatherlink.com 1.10,2013-03-22 17:07:00,
2013-03-22 13:22:00,46.5,29.0,30.07,NNW,339,4.0,-999.0,51,-99.99,,,0.00,weatherlink.com 1.10,2013-03-22 17:22:00,
2013-03-22 13:37:00,46.8,29.0,30.07,SSE,162,0.0,-999.0,51,-99.99,,,0.00,weatherlink.com 1.10,2013-03-22 17:37:00,
2013-03-22 13:52:00,46.9,30.0,30.06,NE,45,0.0,-999.0,52,-99.99,,,0.00,weatherlink.com 1.10,2013-03-22 17:52:00,
2013-03-22 14:07:00,47.1,31.0,30.07,ENE,62,1.0,-999.0,53,-99.99,,,0.00,weatherlink.com 1.10,2013-03-22 18:07:00,
2013-03-22 14:22:00,47.2,30.0,30.06,SSE,165,2.0,-999.0,51,-99.99,,,0.00,weatherlink.com 1.10,2013-03-22 18:22:00,
2013-03-22 14:37:00,47.3,30.0,30.05,West,272,1.0,-999.0,51,-99.99,,,0.00,weatherlink.com 1.10,2013-03-22 18:37:00,
2013-03-22 14:52:00,47.5,30.0,30.06,West,272,0.0,-999.0,50,-99.99,,,0.00,weatherlink.com 1.10,2013-03-22 18:52:00,
2013-03-22 15:07:00,47.4,31.0,30.05,West,272,1.0,-999.0,53,-99.99,,,0.00,weatherlink.com 1.10,2013-03-22 19:07:00,
2013-03-22 15:22:00,47.3,31.0,30.04,West,272,1.0,-999.0,54,-99.99,,,0.00,weatherlink.com 1.10,2013-03-22 19:22:00,
2013-03-22 15:37:00,47.5,31.0,30.02,NW,324,1.0,-999.0,53,-99.99,,,0.00,weatherlink.com 1.10,2013-03-22 19:37:00,
2013-03-22 15:52:00,48.1,31.0,30.02,NE,55,6.0,-999.0,53,-99.99,,,0.00,weatherlink.com 1.10,2013-03-22 19:52:00,
2013-03-22 16:07:00,48.0,32.0,30.02,NNW,343,1.0,-999.0,54,-99.99,,,0.00,weatherlink.com 1.10,2013-03-22 20:07:00,
2013-03-22 16:22:00,48.3,32.0,30.01,ENE,64,2.0,-999.0,53,-99.99,,,0.00,weatherlink.com 1.10,2013-03-22 20:22:00,
2013-03-22 16:37:00,49.0,32.0,30.00,SE,135,2.0,-999.0,53,-99.99,,,0.00,weatherlink.com 1.10,2013-03-22 20:37:00,
2013-03-22 16:53:00,48.9,32.0,30.00,ENE,67,3.0,-999.0,53,-99.99,,,0.00,weatherlink.com 1.10,2013-03-22 20:53:00,
2013-03-22 17:08:00,49.2,33.0,30.00,SE,133,1.0,-999.0,53,-99.99,,,0.00,weatherlink.com 1.10,2013-03-22 21:08:00,
2013-03-22 17:23:00,49.6,33.0,30.00,NE,46,1.0,-999.0,53,-99.99,,,0.00,weatherlink.com 1.10,2013-03-22 21:23:00,
2013-03-22 17:38:00,49.9,33.0,30.01,NE,47,0.0,-999.0,53,-99.99,,,0.00,weatherlink.com 1.10,2013-03-22 21:38:00,
2013-03-22 17:53:00,49.8,34.0,30.01,SE,138,0.0,-999.0,54,-99.99,,,0.00,weatherlink.com 1.10,2013-03-22 21:53:00,
2013-03-22 18:08:00,49.9,33.0,30.01,ENE,59,2.0,-999.0,53,-99.99,,,0.00,weatherlink.com 1.10,2013-03-22 22:08:00,
2013-03-22 18:23:00,49.9,34.0,30.01,ENE,58,1.0,-999.0,55,-99.99,,,0.00,weatherlink.com 1.10,2013-03-22 22:23:00,
2013-03-22 18:38:00,49.8,34.0,30.01,NE,54,4.0,-999.0,55,-99.99,,,0.00,weatherlink.com 1.10,2013-03-22 22:38:00,
2013-03-22 18:53:00,49.7,34.0,30.02,ENE,76,1.0,-999.0,56,-99.99,,,0.00,weatherlink.com 1.10,2013-03-22 22:53:00,
2013-03-22 19:08:00,49.6,34.0,30.02,ENE,76,0.0,-999.0,56,-99.99,,,0.00,weatherlink.com 1.10,2013-03-22 23:08:00,
2013-03-22 19:23:00,49.4,34.0,30.02,ENE,76,0.0,-999.0,56,-99.99,,,0.00,weatherlink.com 1.10,2013-03-22 23:23:00,
2013-03-22 19:38:00,49.2,35.0,30.02,East,79,0.0,-999.0,58,-99.99,,,0.00,weatherlink.com 1.10,2013-03-22 23:38:00,
2013-03-22 19:53:00,49.1,35.0,30.02,NE,37,2.0,-999.0,58,-99.99,,,0.00,weatherlink.com 1.10,2013-03-22 23:53:00,
2013-03-22 20:08:00,48.9,35.0,30.02,NE,37,1.0,-999.0,59,-99.99,,,0.00,weatherlink.com 1.10,2013-03-23 00:08:00,
2013-03-22 20:23:00,48.7,35.0,30.03,NE,37,0.0,-999.0,59,-99.99,,,0.00,weatherlink.com 1.10,2013-03-23 00:23:00,
2013-03-22 20:38:00,48.5,35.0,30.03,NE,37,1.0,-999.0,60,-99.99,,,0.00,weatherlink.com 1.10,2013-03-23 00:38:00,
2013-03-22 20:53:00,48.3,35.0,30.03,NE,37,0.0,-999.0,61,-99.99,,,0.00,weatherlink.com 1.10,2013-03-23 00:53:00,
2013-03-22 21:08:00,48.3,36.0,30.03,NE,37,0.0,-999.0,62,-99.99,,,0.00,weatherlink.com 1.10,2013-03-23 01:08:00,
2013-03-22 21:23:00,48.2,36.0,30.03,SSW,192,3.0,-999.0,62,-99.99,,,0.00,weatherlink.com 1.10,2013-03-23 01:23:00,
2013-03-22 21:38:00,48.1,36.0,30.04,South,189,0.0,-999.0,63,-99.99,,,0.00,weatherlink.com 1.10,2013-03-23 01:38:00,
2013-03-22 21:53:00,48.2,36.0,30.04,South,189,1.0,-999.0,64,-99.99,,,0.00,weatherlink.com 1.10,2013-03-23 01:53:00,
2013-03-22 22:08:00,48.2,38.0,30.04,South,171,0.0,-999.0,68,-99.99,,,0.00,weatherlink.com 1.10,2013-03-23 02:08:00,
2013-03-22 22:23:00,48.1,36.0,30.04,South,171,0.0,-999.0,64,-99.99,,,0.00,weatherlink.com 1.10,2013-03-23 02:23:00,
2013-03-22 22:38:00,48.1,37.0,30.04,South,171,0.0,-999.0,66,-99.99,,,0.00,weatherlink.com 1.10,2013-03-23 02:38:00,
2013-03-22 22:53:00,48.0,36.0,30.04,South,170,0.0,-999.0,63,-99.99,,,0.00,weatherlink.com 1.10,2013-03-23 02:53:00,
2013-03-22 23:08:00,48.0,36.0,30.04,South,170,0.0,-999.0,63,-99.99,,,0.00,weatherlink.com 1.10,2013-03-23 03:08:00,
2013-03-22 23:23:00,48.0,35.0,30.04,South,171,2.0,-999.0,62,-99.99,,,0.00,weatherlink.com 1.10,2013-03-23 03:23:00,
2013-03-22 23:38:00,48.0,36.0,30.03,South,171,0.0,-999.0,63,-99.99,,,0.00,weatherlink.com 1.10,2013-03-23 03:38:00,
2013-03-22 23:53:00,47.9,36.0,30.05,South,171,1.0,-999.0,64,-99.99,,,0.00,weatherlink.com 1.10,2013-03-23 03:53:00,